Change the Weather History Date:

Thursday, January 23, 2014

  Actual Average Record
Temperature  
Mean Temperature 5 °F -  
Max Temperature 17 °F 37 °F 63 °F (1981)
Min Temperature -7 °F 15 °F -20 °F (1963)
Degree Days  
Heating Degree Days 60    
Moisture  
Dew Point -7 °F    
Average Humidity 59    
Maximum Humidity 81    
Minimum Humidity 36    
Precipitation  
Precipitation 0.00 in - - ()
Sea Level Pressure  
Sea Level Pressure 30.68 in    
Wind  
Wind Speed 10 mph (WNW)    
Max Wind Speed 15 mph    
Max Gust Speed 22 mph    
Visibility 10 miles    
Events      
Averages and records for this station are not official NWS values.
T = Trace of Precipitation, MM = Missing Value Source: NWS Daily Summary

Daily Weather History Graph

Daily Weather History Graph

Search for Another Location

Airport or City:

Trip Planner

Search our weather history database for the weather conditions in past years. The results will help you decide how hot, cold, wet, or windy it might be!

Date:

Astronomy

Jan. 23, 2014 Rise Set
Actual Time 7:45 AM CST 5:31 PM CST
Civil Twilight 7:15 AM CST 6:00 PM CST
Nautical Twilight 6:41 AM CST 6:34 PM CST
Astronomical Twilight 6:08 AM CST 7:07 PM CST
Moon 12:08 AM CST (1/23) 11:15 AM CST (1/23)
Length of Visible Light 10h 45m
Length of Day
9h 45m
Waning Gibbous, 55% of the Moon is Illuminated
Jan 23
Waning Gibbous
Jan 23
Last Quarter
Jan 30
New
Feb 6
First Quarter
Feb 14
Full

Hourly Weather History & Observations

Time (CST) Temp. Windchill Dew Point Humidity Pressure Visibility Wind Dir Wind Speed Gust Speed Precip Events Conditions
12:15 AM -1.3 °F -18.7 °F -8.7 °F 71% 30.62 in 10.0 mi NW 11.5 mph - N/A   Clear
12:35 AM -1.3 °F -19.6 °F -8.7 °F 71% 30.62 in 10.0 mi NW 12.7 mph 21.9 mph N/A   Clear
12:55 AM -1.3 °F -21.0 °F -9.0 °F 70% 30.63 in 10.0 mi NW 15.0 mph 20.7 mph N/A   Clear
1:15 AM -1.5 °F -20.5 °F -9.4 °F 69% 30.63 in 10.0 mi NW 13.8 mph 18.4 mph N/A   Clear
1:35 AM -1.8 °F -18.5 °F -9.6 °F 70% 30.63 in 10.0 mi NNW 10.4 mph - N/A   Clear
1:55 AM -2.2 °F -19.9 °F -9.4 °F 71% 30.63 in 10.0 mi NW 11.5 mph - N/A   Clear
2:15 AM -2.4 °F -20.1 °F -9.4 °F 72% 30.64 in 10.0 mi NW 11.5 mph - N/A   Clear
2:35 AM -2.6 °F -21.1 °F -9.4 °F 73% 30.65 in 10.0 mi NW 12.7 mph - N/A   Clear
2:55 AM -3.1 °F -21.0 °F -9.2 °F 75% 30.65 in 10.0 mi NW 11.5 mph - N/A   Clear
3:15 AM -3.1 °F -16.7 °F -9.4 °F 74% 30.66 in 10.0 mi NW 6.9 mph - N/A   Clear
3:35 AM -3.5 °F -20.5 °F -9.2 °F 76% 30.67 in 10.0 mi NW 10.4 mph - N/A   Clear
3:55 AM -3.6 °F -18.6 °F -9.4 °F 76% 30.67 in 10.0 mi NW 8.1 mph - N/A   Clear
4:15 AM -3.8 °F -21.0 °F -9.4 °F 77% 30.68 in 10.0 mi NW 10.4 mph - N/A   Clear
4:35 AM -4.5 °F -18.4 °F -10.1 °F 77% 30.69 in 10.0 mi WNW 6.9 mph - N/A   Clear
4:55 AM -5.6 °F -18.2 °F -10.8 °F 78% 30.70 in 10.0 mi WNW 5.8 mph - N/A   Clear
5:15 AM -5.3 °F -20.6 °F -10.3 °F 79% 30.72 in 10.0 mi WNW 8.1 mph - N/A   Clear
5:35 AM -5.8 °F -19.9 °F -10.5 °F 80% 30.72 in 10.0 mi WNW 6.9 mph - N/A   Clear
5:55 AM -5.8 °F -21.2 °F -10.5 °F 80% 30.73 in 10.0 mi WNW 8.1 mph - N/A   Clear
6:15 AM -6.0 °F -20.1 °F -10.8 °F 79% 30.74 in 10.0 mi WNW 6.9 mph - N/A   Clear
6:35 AM -6.7 °F -19.5 °F -11.4 °F 80% 30.75 in 10.0 mi WNW 5.8 mph - N/A   Clear
6:55 AM -7.6 °F -18.8 °F -12.1 °F 81% 30.75 in 10.0 mi WNW 4.6 mph - N/A   Clear
7:15 AM -7.6 °F -23.4 °F -12.3 °F 80% 30.76 in 10.0 mi WNW 8.1 mph - N/A   Clear
7:35 AM -7.6 °F -23.4 °F -12.3 °F 80% 30.77 in 10.0 mi WNW 8.1 mph - N/A   Clear
7:55 AM -7.4 °F -23.2 °F -11.9 °F 81% 30.78 in 10.0 mi WNW 8.1 mph - N/A   Clear
8:15 AM -5.1 °F -23.5 °F -10.3 °F 78% 30.78 in 10.0 mi WNW 11.5 mph - N/A   Clear
8:35 AM -3.6 °F -20.7 °F -9.2 °F 77% 30.79 in 10.0 mi NW 10.4 mph - N/A   Clear
8:55 AM -2.4 °F -21.7 °F -8.5 °F 75% 30.80 in 10.0 mi WNW 13.8 mph - N/A   Clear
9:15 AM -1.3 °F -21.0 °F -8.0 °F 73% 30.80 in 10.0 mi NW 15.0 mph - N/A   Clear
9:35 AM -0.2 °F -18.2 °F -7.8 °F 70% 30.81 in 10.0 mi NNW 12.7 mph - N/A   Clear
9:55 AM 0.9 °F -16.0 °F -7.2 °F 69% 30.82 in 10.0 mi NW 11.5 mph - N/A   Clear
10:15 AM 2.3 °F -15.0 °F -6.9 °F 66% 30.82 in 10.0 mi NW 12.7 mph - N/A   Clear
10:35 AM 3.9 °F -14.3 °F -6.2 °F 63% 30.82 in 10.0 mi NW 15.0 mph 19.6 mph N/A   Clear
10:55 AM 4.6 °F -10.4 °F -6.0 °F 62% 30.82 in 10.0 mi NW 10.4 mph - N/A   Clear
11:15 AM 5.9 °F -9.7 °F -5.3 °F 60% 30.82 in 10.0 mi NW 11.5 mph - N/A   Clear
11:35 AM 7.2 °F -8.1 °F -4.5 °F 59% 30.82 in 10.0 mi NW 11.5 mph 18.4 mph N/A   Clear
11:55 AM 8.2 °F -6.8 °F -4.4 °F 57% 30.80 in 10.0 mi WNW 11.5 mph 17.3 mph N/A   Clear
12:15 PM 9.7 °F -5.7 °F -4.2 °F 54% 30.79 in 10.0 mi WNW 12.7 mph 16.1 mph N/A   Clear
12:35 PM 10.6 °F -2.2 °F -4.5 °F 51% 30.77 in 10.0 mi WNW 9.2 mph - N/A   Clear
12:55 PM 11.8 °F 0.3 °F -4.4 °F 48% 30.77 in 10.0 mi NW 8.1 mph - N/A   Clear
1:15 PM 12.6 °F 3.4 °F -4.7 °F 46% 30.76 in 10.0 mi West 5.8 mph - N/A   Clear
1:35 PM 13.8 °F 1.8 °F -4.7 °F 44% 30.75 in 10.0 mi NW 9.2 mph - N/A   Clear
1:55 PM 14.7 °F 2.9 °F -5.1 °F 41% 30.74 in 10.0 mi NW 9.2 mph - N/A   Clear
2:15 PM 15.3 °F 6.6 °F -5.4 °F 40% 30.72 in 10.0 mi NW 5.8 mph - N/A   Clear
2:35 PM 15.8 °F 5.1 °F -5.1 °F 39% 30.72 in 10.0 mi WNW 8.1 mph - N/A   Clear
2:55 PM 16.7 °F 6.2 °F -4.9 °F 38% 30.72 in 10.0 mi WNW 8.1 mph - N/A   Clear
3:15 PM 17.6 °F 9.3 °F -5.1 °F 37% 30.71 in 10.0 mi NW 5.8 mph - N/A   Clear
3:35 PM 16.9 °F 5.5 °F -4.9 °F 38% 30.70 in 10.0 mi West 9.2 mph - N/A   Clear
3:55 PM 17.6 °F 7.3 °F -4.9 °F 37% 30.70 in 10.0 mi WNW 8.1 mph - N/A   Clear
4:15 PM 17.2 °F 8.9 °F -5.6 °F 36% 30.70 in 10.0 mi West 5.8 mph - N/A   Clear
4:35 PM 16.9 °F 9.8 °F -5.8 °F 36% 30.69 in 10.0 mi WSW 4.6 mph - N/A   Clear
4:55 PM 16.3 °F 7.8 °F -5.3 °F 38% 30.69 in 10.0 mi WSW 5.8 mph - N/A   Clear
5:15 PM 15.4 °F 6.8 °F -5.3 °F 40% 30.68 in 10.0 mi SW 5.8 mph - N/A   Clear
5:35 PM 13.3 °F 5.6 °F -5.8 °F 42% 30.67 in 10.0 mi SSW 4.6 mph - N/A   Clear
5:55 PM 13.6 °F 7.7 °F -5.3 °F 43% 30.66 in 10.0 mi SSW 3.5 mph - N/A   Clear
6:15 PM 12.7 °F 3.6 °F -5.1 °F 45% 30.64 in 10.0 mi South 5.8 mph - N/A   Clear
6:35 PM 11.8 °F 3.9 °F -5.4 °F 46% 30.64 in 10.0 mi SSW 4.6 mph - N/A   Clear
6:55 PM 11.8 °F 5.7 °F -5.1 °F 47% 30.63 in 10.0 mi SSW 3.5 mph - N/A   Clear
7:15 PM 11.1 °F 3.1 °F -5.4 °F 47% 30.62 in 10.0 mi South 4.6 mph - N/A   Clear
7:35 PM 11.7 °F 2.3 °F -5.8 °F 46% 30.61 in 10.0 mi South 5.8 mph - N/A   Clear
7:55 PM 12.4 °F 2.0 °F -5.8 °F 44% 30.60 in 10.0 mi South 6.9 mph - N/A   Clear
8:35 PM 12.9 °F -0.2 °F -6.3 °F 42% 30.56 in 10.0 mi South 10.4 mph - N/A   Clear
8:55 PM 12.2 °F -0.2 °F -6.3 °F 43% 30.55 in 10.0 mi SSW 9.2 mph 16.1 mph N/A   Clear
9:15 PM 12.0 °F -0.4 °F -6.7 °F 43% 30.54 in 10.0 mi SSW 9.2 mph - N/A   Clear
9:55 PM 11.3 °F -2.2 °F -6.7 °F 44% 30.50 in 10.0 mi South 10.4 mph 17.3 mph N/A   Clear
10:15 PM 10.4 °F -3.3 °F -6.3 °F 47% 30.49 in 10.0 mi South 10.4 mph - N/A   Clear
10:35 PM 10.9 °F -3.4 °F -6.2 °F 46% 30.47 in 10.0 mi South 11.5 mph - N/A   Clear
10:55 PM 11.1 °F -3.9 °F -6.2 °F 46% 30.45 in 10.0 mi South 12.7 mph 18.4 mph N/A   Clear
11:15 PM 11.3 °F -3.6 °F -6.0 °F 46% 30.43 in 10.0 mi SSW 12.7 mph 18.4 mph N/A   Clear
11:35 PM 11.3 °F -2.9 °F -5.8 °F 46% 30.42 in 10.0 mi South 11.5 mph 18.4 mph N/A   Clear
11:55 PM 11.5 °F -1.9 °F -6.0 °F 46% 30.41 in 10.0 mi SSW 10.4 mph - N/A   Clear